Location: Penton Mewsey
(51.2167°N, 1.5167°W)
Time: 09:11:54
(UTC+00:00)

Cosmos 921 Rocket - Pass Details

Date: 30 March 2020
Orbit: 572 x 632 km, 75.8° (Epoch: 23 May)

Event Time Altitude Azimuth Distance (km) Brightness Sun altitude
Rises 21:52:53 0° 336° (NNW) 2,802 7.6 -27.3°
Reaches altitude 10° 21:55:07 10° 334° (NNW) 1,894 6.5 -27.5°
Enters shadow 21:58:10 45° 315° (NW) 793 3.9 -27.8°
